Simultaneous Nadir Overpasses (SNOs) Predictions

Prediction of SNOs near US between AQUA and NPP Satellite Orbit:

Table of predicted SNOs near US for the next 10.0 days since TLE Epoch: 8/30/2019
Index Date (AQUA) Time (AQUA) AQUA Lat,Lon Date (NPP) Time (NPP) NPP Lat,Lon Distance(km) Time Diff (sec)
1 08/31/2019 19:06:12 49.96, -92.52 08/31/2019 19:01:35 49.62, -94.43 142.38 277
2 08/31/2019 20:45:05 49.95,-117.23 08/31/2019 20:43:03 49.51,-119.75 187.69 122
3 09/03/2019 08:34:54 20.01,-101.87 09/03/2019 08:26:34 19.27,-102.25 91.80 500
4 09/03/2019 10:11:29 28.33,-124.57 09/03/2019 10:05:27 28.46,-125.28 70.61 362
5 09/06/2019 07:18:35 49.91, -75.98 09/06/2019 07:20:34 50.35, -78.18 164.63 119
6 09/06/2019 08:57:28 49.91,-100.70 09/06/2019 09:02:02 50.46,-103.51 209.09 274
7 09/08/2019 18:16:44 49.95, -80.15 09/08/2019 18:10:51 49.69, -81.76 119.28 353
8 09/08/2019 19:55:37 49.94,-104.87 09/08/2019 19:52:19 49.58,-107.09 164.54 198
9 09/08/2019 21:30:49 36.77,-125.00 09/08/2019 21:29:59 36.26,-127.60 239.49 50




NCC Satellite Simultaneous Nadir Overpasses (SNOs) Prediction Service
